Time,TemperatureF,DewpointF,PressureIn,WindDirection,WindDirectionDegrees,WindSpeedMPH,WindSpeedGustMPH,Humidity,HourlyPrecipIn,Conditions,Clouds,dailyrainin,SoftwareType,DateUTC
2013-04-27 00:02:00,34.0,6.0,-100.00,WSW,237,4.0,7.0,30,0.00,,,0.00,,2013-04-27 06:02:00,
2013-04-27 00:12:00,34.0,6.0,-100.00,WSW,237,4.0,7.0,30,0.00,,,0.00,,2013-04-27 06:12:00,
2013-04-27 00:22:00,34.0,6.0,-100.00,WSW,237,4.0,7.0,30,0.00,,,0.00,,2013-04-27 06:22:00,
2013-04-27 00:52:00,34.0,7.0,-100.00,SW,225,5.0,7.0,32,0.00,,,0.00,,2013-04-27 06:52:00,
2013-04-27 01:01:00,34.0,7.0,-100.00,SW,225,5.0,7.0,32,0.00,,,0.00,,2013-04-27 07:01:00,
2013-04-27 01:11:00,34.0,7.0,-100.00,SW,225,5.0,7.0,32,0.00,,,0.00,,2013-04-27 07:11:00,
2013-04-27 01:21:00,34.0,7.0,-100.00,SW,225,5.0,7.0,32,0.00,,,0.00,,2013-04-27 07:21:00,
2013-04-27 01:52:00,34.0,8.0,-100.00,SSW,211,6.0,10.0,33,0.00,,,0.00,,2013-04-27 07:52:00,
2013-04-27 02:01:00,34.0,8.0,-100.00,SSW,211,6.0,10.0,33,0.00,,,0.00,,2013-04-27 08:01:00,
2013-04-27 02:11:00,34.0,8.0,-100.00,SSW,211,6.0,10.0,33,0.00,,,0.00,,2013-04-27 08:11:00,
2013-04-27 02:21:00,34.0,8.0,-100.00,SSW,211,6.0,10.0,33,0.00,,,0.00,,2013-04-27 08:21:00,
2013-04-27 02:52:00,33.0,6.0,-100.00,SW,223,5.0,9.0,32,0.00,,,0.00,,2013-04-27 08:52:00,
2013-04-27 03:01:00,33.0,6.0,-100.00,SW,223,5.0,9.0,32,0.00,,,0.00,,2013-04-27 09:01:00,
2013-04-27 03:11:00,33.0,6.0,-100.00,SW,223,5.0,9.0,32,0.00,,,0.00,,2013-04-27 09:11:00,
2013-04-27 03:21:00,33.0,6.0,-100.00,SW,223,5.0,9.0,32,0.00,,,0.00,,2013-04-27 09:21:00,
2013-04-27 03:53:00,33.0,6.0,-100.00,SW,230,5.0,8.0,31,0.00,,,0.00,,2013-04-27 09:53:00,
2013-04-27 04:02:00,33.0,6.0,-100.00,SW,230,5.0,8.0,31,0.00,,,0.00,,2013-04-27 10:02:00,
2013-04-27 04:12:00,33.0,6.0,-100.00,SW,230,5.0,8.0,31,0.00,,,0.00,,2013-04-27 10:12:00,
2013-04-27 04:22:00,33.0,6.0,-100.00,SW,230,5.0,8.0,31,0.00,,,0.00,,2013-04-27 10:22:00,
2013-04-27 04:52:00,33.0,6.0,-100.00,WSW,242,5.0,8.0,31,0.00,,,0.00,,2013-04-27 10:52:00,
2013-04-27 05:02:00,33.0,6.0,-100.00,WSW,242,5.0,8.0,31,0.00,,,0.00,,2013-04-27 11:02:00,
2013-04-27 05:12:00,33.0,6.0,-100.00,WSW,242,5.0,8.0,31,0.00,,,0.00,,2013-04-27 11:12:00,
2013-04-27 05:22:00,33.0,6.0,-100.00,WSW,242,5.0,8.0,31,0.00,,,0.00,,2013-04-27 11:22:00,
2013-04-27 05:52:00,32.0,4.0,-100.00,SW,235,6.0,9.0,30,0.00,,,0.00,,2013-04-27 11:52:00,
2013-04-27 06:01:00,32.0,4.0,-100.00,SW,235,6.0,9.0,30,0.00,,,0.00,,2013-04-27 12:01:00,
2013-04-27 06:11:00,32.0,4.0,-100.00,SW,235,6.0,9.0,30,0.00,,,0.00,,2013-04-27 12:11:00,
2013-04-27 06:21:00,32.0,4.0,-100.00,SW,235,6.0,9.0,30,0.00,,,0.00,,2013-04-27 12:21:00,
2013-04-27 06:52:00,31.0,5.0,-100.00,West,276,2.0,10.0,33,0.00,,,0.00,,2013-04-27 12:52:00,
2013-04-27 07:02:00,31.0,5.0,-100.00,West,276,2.0,10.0,33,0.00,,,0.00,,2013-04-27 13:02:00,
2013-04-27 07:11:00,31.0,5.0,-100.00,West,276,2.0,10.0,33,0.00,,,0.00,,2013-04-27 13:11:00,
2013-04-27 07:21:00,31.0,5.0,-100.00,West,276,2.0,10.0,33,0.00,,,0.00,,2013-04-27 13:21:00,
2013-04-27 07:52:00,36.0,6.0,-100.00,West,272,5.0,9.0,28,0.00,,,0.00,,2013-04-27 13:52:00,
2013-04-27 08:02:00,36.0,6.0,-100.00,West,272,5.0,9.0,28,0.00,,,0.00,,2013-04-27 14:02:00,
2013-04-27 08:11:00,36.0,6.0,-100.00,West,272,5.0,9.0,28,0.00,,,0.00,,2013-04-27 14:11:00,
2013-04-27 08:21:00,36.0,6.0,-100.00,West,272,5.0,9.0,28,0.00,,,0.00,,2013-04-27 14:21:00,
2013-04-27 08:52:00,39.0,6.0,-100.00,WNW,299,5.0,8.0,25,0.00,,,0.00,,2013-04-27 14:52:00,
2013-04-27 09:01:00,39.0,6.0,-100.00,WNW,299,5.0,8.0,25,0.00,,,0.00,,2013-04-27 15:01:00,
2013-04-27 09:12:00,39.0,6.0,-100.00,WNW,299,5.0,8.0,25,0.00,,,0.00,,2013-04-27 15:12:00,
2013-04-27 09:22:00,39.0,6.0,-100.00,WNW,299,5.0,8.0,25,0.00,,,0.00,,2013-04-27 15:22:00,
2013-04-27 09:53:00,42.0,10.0,-100.00,WNW,291,5.0,13.0,26,0.00,,,0.00,,2013-04-27 15:53:00,
2013-04-27 10:03:00,42.0,10.0,-100.00,WNW,291,5.0,13.0,26,0.00,,,0.00,,2013-04-27 16:03:00,
2013-04-27 10:13:00,42.0,10.0,-100.00,WNW,291,5.0,13.0,26,0.00,,,0.00,,2013-04-27 16:13:00,
2013-04-27 10:22:00,42.0,10.0,-100.00,WNW,291,5.0,13.0,26,0.00,,,0.00,,2013-04-27 16:22:00,
2013-04-27 10:53:00,43.0,12.0,-100.00,WNW,299,8.0,14.0,28,0.00,,,0.00,,2013-04-27 16:53:00,
2013-04-27 11:02:00,43.0,12.0,-100.00,WNW,299,8.0,14.0,28,0.00,,,0.00,,2013-04-27 17:02:00,
2013-04-27 11:12:00,43.0,12.0,-100.00,WNW,299,8.0,14.0,28,0.00,,,0.00,,2013-04-27 17:12:00,
2013-04-27 11:22:00,43.0,12.0,-100.00,WNW,299,8.0,14.0,28,0.00,,,0.00,,2013-04-27 17:22:00,
2013-04-27 11:53:00,46.0,13.0,-100.00,West,270,6.0,18.0,26,0.00,,,0.00,,2013-04-27 17:53:00,
2013-04-27 12:02:00,46.0,13.0,-100.00,West,270,6.0,18.0,26,0.00,,,0.00,,2013-04-27 18:02:00,
2013-04-27 12:12:00,46.0,13.0,-100.00,West,270,6.0,18.0,26,0.00,,,0.00,,2013-04-27 18:12:00,
2013-04-27 12:22:00,46.0,13.0,-100.00,West,270,6.0,18.0,26,0.00,,,0.00,,2013-04-27 18:22:00,
2013-04-27 12:52:00,48.0,15.0,-100.00,WNW,282,7.0,16.0,26,0.00,,,0.00,,2013-04-27 18:52:00,
2013-04-27 13:02:00,48.0,15.0,-100.00,WNW,282,7.0,16.0,26,0.00,,,0.00,,2013-04-27 19:02:00,
2013-04-27 13:11:00,48.0,15.0,-100.00,WNW,282,7.0,16.0,26,0.00,,,0.00,,2013-04-27 19:11:00,
2013-04-27 13:21:00,48.0,15.0,-100.00,WNW,282,7.0,16.0,26,0.00,,,0.00,,2013-04-27 19:21:00,
2013-04-27 13:53:00,47.0,15.0,-100.00,NW,308,9.0,20.0,27,0.00,,,0.00,,2013-04-27 19:53:00,
2013-04-27 14:02:00,47.0,15.0,-100.00,NW,308,9.0,20.0,27,0.00,,,0.00,,2013-04-27 20:02:00,
2013-04-27 14:11:00,47.0,15.0,-100.00,NW,308,9.0,20.0,27,0.00,,,0.00,,2013-04-27 20:11:00,
2013-04-27 14:21:00,47.0,15.0,-100.00,NW,308,9.0,20.0,27,0.00,,,0.00,,2013-04-27 20:21:00,
2013-04-27 14:52:00,48.0,15.0,-100.00,West,270,10.0,20.0,26,0.00,,,0.00,,2013-04-27 20:52:00,
2013-04-27 15:02:00,48.0,15.0,-100.00,West,270,10.0,20.0,26,0.00,,,0.00,,2013-04-27 21:02:00,
2013-04-27 15:12:00,48.0,15.0,-100.00,West,270,10.0,20.0,26,0.00,,,0.00,,2013-04-27 21:12:00,
2013-04-27 15:21:00,48.0,15.0,-100.00,West,270,10.0,20.0,26,0.00,,,0.00,,2013-04-27 21:21:00,
2013-04-27 15:53:00,48.0,13.0,-100.00,WNW,288,12.0,21.0,24,0.00,,,0.00,,2013-04-27 21:53:00,
2013-04-27 16:02:00,48.0,13.0,-100.00,WNW,288,12.0,21.0,24,0.00,,,0.00,,2013-04-27 22:02:00,
2013-04-27 16:13:00,48.0,13.0,-100.00,WNW,288,12.0,21.0,24,0.00,,,0.00,,2013-04-27 22:13:00,
2013-04-27 16:22:00,48.0,13.0,-100.00,WNW,288,12.0,21.0,24,0.00,,,0.00,,2013-04-27 22:22:00,
2013-04-27 16:53:00,49.0,11.0,-100.00,West,275,8.0,21.0,21,0.00,,,0.00,,2013-04-27 22:53:00,
2013-04-27 17:02:00,49.0,11.0,-100.00,West,275,8.0,21.0,21,0.00,,,0.00,,2013-04-27 23:02:00,
2013-04-27 17:11:00,49.0,11.0,-100.00,West,275,8.0,21.0,21,0.00,,,0.00,,2013-04-27 23:11:00,
2013-04-27 17:22:00,49.0,11.0,-100.00,West,275,8.0,21.0,21,0.00,,,0.00,,2013-04-27 23:22:00,
2013-04-27 17:52:00,48.0,10.0,-100.00,WNW,284,11.0,19.0,21,0.00,,,0.00,,2013-04-27 23:52:00,
2013-04-27 18:01:00,48.0,10.0,-100.00,WNW,284,11.0,19.0,21,0.00,,,0.00,,2013-04-28 00:01:00,
2013-04-27 18:11:00,48.0,10.0,-100.00,WNW,284,11.0,19.0,21,0.00,,,0.00,,2013-04-28 00:11:00,
2013-04-27 18:21:00,48.0,10.0,-100.00,WNW,284,11.0,19.0,21,0.00,,,0.00,,2013-04-28 00:21:00,
2013-04-27 18:52:00,47.0,9.0,-100.00,WNW,299,12.0,22.0,21,0.00,,,0.00,,2013-04-28 00:52:00,
2013-04-27 19:01:00,47.0,9.0,-100.00,WNW,299,12.0,22.0,21,0.00,,,0.00,,2013-04-28 01:01:00,
2013-04-27 19:11:00,47.0,9.0,-100.00,WNW,299,12.0,22.0,21,0.00,,,0.00,,2013-04-28 01:11:00,
2013-04-27 19:21:00,47.0,9.0,-100.00,WNW,299,12.0,22.0,21,0.00,,,0.00,,2013-04-28 01:21:00,
2013-04-27 19:52:00,44.0,10.0,-100.00,WNW,303,8.0,17.0,25,0.00,,,0.00,,2013-04-28 01:52:00,
2013-04-27 20:02:00,44.0,10.0,-100.00,WNW,303,8.0,17.0,25,0.00,,,0.00,,2013-04-28 02:02:00,
2013-04-27 20:12:00,44.0,10.0,-100.00,WNW,303,8.0,17.0,25,0.00,,,0.00,,2013-04-28 02:12:00,
2013-04-27 20:22:00,44.0,10.0,-100.00,WNW,303,8.0,17.0,25,0.00,,,0.00,,2013-04-28 02:22:00,
2013-04-27 20:52:00,40.0,12.0,-100.00,WNW,301,6.0,16.0,31,0.00,,,0.00,,2013-04-28 02:52:00,
2013-04-27 21:01:00,40.0,12.0,-100.00,WNW,301,6.0,16.0,31,0.00,,,0.00,,2013-04-28 03:01:00,
2013-04-27 21:11:00,40.0,12.0,-100.00,WNW,301,6.0,16.0,31,0.00,,,0.00,,2013-04-28 03:11:00,
2013-04-27 21:21:00,40.0,12.0,-100.00,WNW,301,6.0,16.0,31,0.00,,,0.00,,2013-04-28 03:21:00,
2013-04-27 21:53:00,39.0,11.0,-100.00,West,279,5.0,11.0,31,0.00,,,0.00,,2013-04-28 03:53:00,
2013-04-27 22:03:00,39.0,11.0,-100.00,West,279,5.0,11.0,31,0.00,,,0.00,,2013-04-28 04:03:00,
2013-04-27 22:13:00,39.0,11.0,-100.00,West,279,5.0,11.0,31,0.00,,,0.00,,2013-04-28 04:13:00,
2013-04-27 22:23:00,39.0,11.0,-100.00,West,279,5.0,11.0,31,0.00,,,0.00,,2013-04-28 04:23:00,
2013-04-27 22:53:00,39.0,10.0,-100.00,WSW,240,4.0,6.0,30,0.00,,,0.00,,2013-04-28 04:53:00,
2013-04-27 23:02:00,39.0,10.0,-100.00,WSW,240,4.0,6.0,30,0.00,,,0.00,,2013-04-28 05:02:00,
2013-04-27 23:12:00,39.0,10.0,-100.00,WSW,240,4.0,6.0,30,0.00,,,0.00,,2013-04-28 05:12:00,
2013-04-27 23:22:00,39.0,10.0,-100.00,WSW,240,4.0,6.0,30,0.00,,,0.00,,2013-04-28 05:22:00,
2013-04-27 23:52:00,38.0,9.0,-100.00,SW,222,5.0,8.0,30,0.00,,,0.00,,2013-04-28 05:52:00,